User: anonymous   Login
Location: ?????????
(38.5999°N, 22.7695°E)
Time: 13:29:58
(UTC+00:00)
Language:

Okean 2 Rocket - Orbit

View from above orbital plane
View from above orbital plane
View from above satellite
View from above satellite

Ground track
Ground track

The orbit data is extracted from the following two-line orbital elements,

1 20511U 90018B   24206.11614162  .00000922  00000-0  11565-3 0  9997
2 20511  82.5200  57.5495 0015201 242.0514 117.9161 14.81121629855773
Epoch (UTC): 24 July 2024 02:47:14
Eccentricity: 0.0015201
inclination: 82.5200°
perigee height: 615 km
apogee height: 636 km
right ascension of ascending node: 57.5495°
argument of perigee: 242.0514°
revolutions per day: 14.81121629
mean anomaly at epoch: 117.9161°
orbit number at epoch: 85577

The dashed part of the orbit path shows where the satellite is in the earth's shadow,  

DLR